GFSWCAN_850_dewp_213.txt.gz
Dewpoint
-11 -7 -6 -4 -3 -3 -3 -3 -3 -4 -5 -5 -5 -6 -5 -6 -6 -4 -2 -1 -1 -1 -1 -1 -2 -1 -2 -3 1 -2 -1 -0 2 1 1 1 2 -1 -2 -5 -4 0 3 3 4 4 4 -0 1 3 3 1 2 3
-20 -15 -8 -7 -6 -5 -5 -5 -4 -4 -4 -5 -7 -7 -7 -6 -7 -5 -3 -3 -2 -1 -1 -1 -1 -2 -2 -1 -0 -0 -1 -1 -1 0 -0 -1 0 -1 -2 2 -6 -2 1 3 4 4 3 -0 2 2 4 5 4 3
-29 -25 -20 -15 -9 -8 -8 -7 -6 -6 -5 -5 -6 -7 -8 -7 -7 -6 -3 -2 -1 -1 -1 -1 -1 -2 -2 -1 -1 0 0 -1 -0 -1 0 -1 2 -1 1 -0 -3 -4 -5 2 3 0 2 1 1 1 3 2 3 2
-19 -25 -30 -28 -22 -18 -14 -11 -9 -8 -7 -6 -6 -7 -8 -8 -8 -7 -1 -1 -1 -1 -1 -2 -3 -0 -1 -1 -0 -0 -0 0 -1 -1 1 3 3 -1 1 3 3 -0 -4 2 1 -1 -2 1 2 4 4 0 1 3
-13 -16 -18 -24 -29 -31 -28 -22 -17 -12 -10 -8 -8 -8 -8 -8 -9 -7 -2 -2 -1 -1 -0 -1 -2 -3 -2 1 -0 0 -0 -1 -0 1 2 3 -0 1 0 -0 1 -2 -2 3 3 -1 2 0 1 2 5 3 -2 0
-5 -6 -9 -14 -18 -22 -28 -33 -34 -25 -14 -11 -9 -8 -8 -9 -8 -2 -1 -2 -3 -1 -2 1 -1 -0 0 -0 -0 -0 -0 -1 -1 -0 2 -2 -4 -0 1 -1 -4 -6 -4 -0 1 1 2 2 3 1 1 1 -2 -2
-6 -5 -6 -6 -8 -14 -19 -25 -33 -34 -22 -12 -11 -9 -9 -10 -7 -1 -2 0 -3 -1 -1 1 1 0 -1 -0 0 0 -0 -0 -0 -0 2 -1 -1 -1 1 1 -4 -4 1 1 2 3 2 -1 -1 -1 1 2 -0 -0
-5 -5 -5 -6 -6 -6 -8 -19 -30 -27 -19 -13 -11 -9 -11 -11 -8 -2 -2 -1 -1 -1 -1 1 1 1 -1 -0 -0 -1 -1 -1 -1 1 1 -0 -1 0 2 -4 -5 -5 -5 -2 -2 -0 -0 -1 -3 -3 -3 -3 -3 -2
-7 -6 -5 -5 -5 -5 -5 -8 -26 -25 -18 -13 -10 -11 -9 -2 -2 -1 -2 -3 -1 -2 1 2 -0 2 -0 -0 -1 -1 -0 2 0 2 -0 -0 -0 2 -1 -4 -4 -5 -3 -2 -3 -3 -2 -2 -4 -4 -4 -5 -5 -4
-6 -6 -7 -5 -5 -5 -5 -5 -19 -26 -18 -12 -5 -2 -2 -2 -1 -5 -2 -1 -1 -1 -1 0 -2 -1 -1 0 2 2 -0 3 2 0 0 2 -1 -4 -4 -2 -3 -2 -2 -2 -2 -1 -2 -3 -4 -4 -5 -5 -4 -4
-6 -6 -6 -8 -6 -5 -5 -5 -9 -20 -7 -4 -2 -1 -1 -4 -4 -4 -1 -2 -3 -1 -0 -1 -2 -1 0 0 3 -0 2 1 2 2 -0 1 -2 -2 -2 -2 -1 -1 -2 -2 -2 -1 -2 -2 -3 -4 -4 -3 -3 -3
-6 -6 -6 -6 -7 -5 -5 -5 -5 -4 -4 -3 -3 -3 -3 -2 -3 -3 -3 -6 -6 -4 -2 -3 -0 -2 -1 -1 1 0 1 0 2 -1 0 -0 2 -2 -1 -0 -0 0 0 0 0 1 -0 -1 -1 -1 -2 -2 -1 -1
-7 -7 -6 -6 -6 -6 -5 -5 -5 -6 -7 -4 -3 -2 -2 -4 -3 -3 -3 -6 -4 -4 -4 -4 -1 -2 -2 -2 -0 -1 1 1 -4 -0 -1 0 -1 -2 -1 -1 -1 -1 -0 0 1 1 1 0 0 -1 -4 -4 -4 -6
-7 -7 -7 -7 -6 -7 -5 -5 -10 -16 -6 -4 -4 -2 -4 -3 -6 -9 -8 -7 -5 -4 -4 -5 -4 -2 -4 -1 -2 0 -1 -3 1 -0 -1 -0 -1 -0 -1 -0 1 0 -0 -1 -1 -1 -1 -1 -2 -3 -4 -5 -6 -6
-8 -8 -8 -7 -7 -6 -5 -6 -9 -7 -6 -6 -7 -3 -5 -9 -7 -6 -4 -3 -3 -4 -5 -5 -4 -6 -4 -3 -5 -3 -2 -1 -4 -1 -1 1 -0 -1 -1 -1 -1 -2 -2 -2 -1 -1 -2 -4 -5 -6 -6 -6 -6 -5
-7 -7 -6 -7 -8 -7 -7 -6 -5 -8 -7 -7 -7 -5 -5 -2 2 -1 -2 -3 -5 -3 -4 -5 -6 -5 -5 -7 -6 -4 -6 -7 -4 -2 -2 -2 -1 -1 -1 -2 -2 -2 -2 -3 -4 -4 -5 -5 -5 -5 -4 -4 -4 -4
-7 -6 -6 -7 -9 -10 -9 -5 -6 -7 -7 -8 -2 -4 -2 -3 1 -0 -2 -4 -5 -4 -3 -7 -6 -7 -7 -6 -8 -8 -6 -2 -1 -2 -2 -2 -2 -1 -1 -2 -3 -2 -3 -3 -4 -4 -4 -4 -4 -4 -4 -4 -4 -5
-7 -8 -7 -6 -8 -7 -6 -5 -7 -8 -8 -10 -5 -1 -2 -3 -2 -1 -2 -4 -4 -5 -6 -7 -6 -6 -5 -8 -10 -6 -2 -2 -2 -3 -2 -2 -2 -2 -2 -2 -2 -2 -3 -4 -3 -4 -4 -4 -4 -4 -5 -4 -4 -4
-8 -7 -7 -7 -7 -6 -6 -9 -8 -8 -9 -9 -8 -6 -4 -3 -3 -4 -4 -4 -5 -6 -5 -5 -6 -6 -8 -8 -6 -1 -2 -2 -2 -2 -3 -3 -2 -3 -3 -3 -3 -3 -3 -4 -3 -4 -4 -4 -4 -5 -5 -5 -5 -5
-8 -9 -9 -9 -7 -6 -8 -9 -9 -8 -9 -10 -9 -7 -5 -5 -4 -3 -3 -4 -5 -5 -5 -5 -6 -6 -6 -4 -3 -3 -2 -2 -2 -3 -3 -2 -3 -2 -3 -3 -3 -4 -4 -4 -4 -5 -5 -5 -5 -5 -6 -5 -5 -5
-8 -8 -8 -8 -7 -6 -8 -9 -12 -11 -9 -9 -8 -7 -5 -4 -4 -3 -4 -5 -4 -5 -6 -8 -7 -3 -1 -1 -2 -2 -1 -2 -2 -3 -2 -2 -2 -2 -2 -3 -3 -4 -4 -4 -4 -5 -5 -5 -5 -6 -6 -6 -6 -6
-7 -8 -7 -7 -6 -6 -7 -11 -11 -13 -8 -9 -6 -5 -4 -3 -3 -4 -5 -4 -4 -6 -7 -7 -6 -3 -2 -2 -2 -1 -2 -2 -1 -2 -2 -2 -3 -4 -4 -4 -4 -5 -5 -5 -5 -5 -5 -5 -6 -6 -5 -6 -6 -6
-8 -7 -7 -7 -7 -8 -9 -12 -12 -13 -10 -12 -11 -6 -5 -5 -6 -5 -2 -5 -6 -6 -6 -5 -6 -5 -4 -2 -2 -2 -2 -2 -2 -3 -2 -3 -4 -4 -4 -4 -5 -5 -5 -5 -5 -5 -5 -5 -6 -6 -5 -6 -6 -6
-6 -7 -7 -9 -10 -9 -10 -10 -11 -12 -12 -11 -13 -4 -7 -6 -5 -4 -6 -7 -6 -4 -4 -5 -4 -4 -2 -2 -2 -2 -3 -3 -3 -3 -3 -4 -4 -4 -4 -4 -4 -5 -4 -5 -5 -5 -5 -6 -6 -6 -6 -5 -6 -6
-7 -7 -8 -9 -11 -10 -11 -11 -8 -7 -7 -9 -11 -10 -5 -5 -3 -5 -7 -6 -4 -4 -4 -4 -3 -2 -2 -2 -2 -2 -2 -3 -3 -2 -3 -4 -4 -4 -4 -4 -4 -4 -4 -4 -5 -5 -5 -5 -5 -5 -5 -5 -5 -6
-9 -8 -8 -10 -10 -11 -12 -12 -8 -10 -7 -5 -7 -12 -10 -3 -4 -4 -4 -3 -3 -4 -3 -4 -3 -3 -3 -3 -3 -3 -2 -3 -3 -3 -3 -3 -3 -3 -4 -4 -4 -4 -4 -4 -4 -4 -4 -5 -5 -5 -5 -5 -5 -5
-8 -8 -8 -8 -9 -10 -9 -10 -12 -11 -10 -11 -11 -8 -6 -4 -5 -5 -6 -7 -6 -6 -5 -4 -3 -3 -4 -4 -4 -3 -3 -3 -3 -4 -4 -4 -4 -4 -4 -4 -4 -4 -5 -4 -4 -4 -4 -4 -5 -5 -6 -6 -6 -6
-10 -11 -9 -9 -9 -10 -8 -8 -8 -6 -7 -7 -8 -6 -5 -5 -6 -8 -8 -9 -9 -8 -6 -5 -5 -5 -5 -6 -6 -5 -4 -4 -4 -5 -5 -5 -5 -6 -6 -6 -6 -6 -5 -5 -6 -6 -5 -5 -4 -5 -5 -5 -5 -5
-11 -13 -12 -10 -10 -7 -9 -9 -8 -8 -9 -8 -6 -6 -8 -9 -8 -8 -9 -9 -9 -9 -10 -9 -9 -8 -8 -9 -8 -7 -7 -6 -6 -6 -5 -6 -7 -7 -7 -7 -7 -7 -7 -6 -6 -6 -6 -5 -5 -5 -5 -4 -4 -4
-13 -14 -13 -13 -11 -8 -9 -10 -9 -9 -9 -8 -9 -10 -10 -11 -11 -10 -10 -10 -10 -10 -10 -10 -10 -10 -10 -10 -11 -12 -13 -12 -9 -7 -6 -7 -8 -8 -9 -9 -9 -9 -9 -8 -8 -7 -6 -6 -6 -5 -5 -5 -5 -5
-14 -13 -14 -14 -12 -10 -10 -9 -8 -9 -9 -8 -9 -10 -11 -11 -11 -11 -11 -10 -10 -10 -10 -10 -10 -10 -11 -10 -10 -12 -13 -18 -19 -16 -13 -12 -12 -12 -13 -14 -16 -16 -17 -17 -15 -12 -9 -6 -6 -5 -6 -6 -6 -6
-14 -14 -12 -13 -12 -12 -10 -9 -9 -9 -9 -9 -9 -9 -9 -10 -11 -12 -11 -10 -10 -11 -10 -11 -11 -12 -12 -14 -14 -13 -14 -13 -13 -13 -13 -13 -14 -14 -15 -15 -14 -13 -12 -11 -12 -14 -10 -8 -7 -7 -7 -7 -6 -6
-14 -15 -14 -12 -12 -11 -11 -10 -9 -10 -10 -10 -11 -10 -11 -11 -12 -11 -13 -12 -13 -13 -13 -13 -13 -13 -14 -15 -14 -15 -15 -15 -15 -15 -15 -15 -15 -15 -16 -16 -15 -12 -10 -9 -9 -9 -8 -8 -8 -8 -8 -8 -7 -7

GFSWCAN_850_dewp_216.txt.gz
Dewpoint
-27 -25 -19 -13 -8 -6 -6 -4 -4 -4 -4 -4 -5 -6 -6 -6 -6 -5 -5 -3 -1 -1 -2 -2 -2 -2 -2 -2 0 -2 -2 -1 1 2 1 0 0 -1 -2 -3 -2 -1 -0 1 2 3 2 -7 -9 -2 -0 3 4 5
-19 -25 -28 -24 -19 -12 -8 -7 -7 -7 -6 -6 -5 -5 -5 -6 -6 -6 -4 -3 -2 -1 -1 -1 -1 -1 -1 -2 -1 -0 0 -1 0 2 1 0 0 -1 -1 1 -5 -1 -2 -0 3 0 -4 -6 -2 1 2 2 4 4
-15 -16 -18 -24 -28 -27 -22 -18 -13 -11 -9 -8 -7 -6 -6 -6 -7 -6 -3 -2 -2 -1 -2 -1 -1 -4 -3 -2 -4 -0 -0 -0 0 -1 0 2 2 -2 1 -0 -1 -3 -4 -1 -1 -1 -2 -1 -3 1 -0 0 1 1
-10 -11 -13 -15 -16 -20 -26 -29 -29 -24 -19 -15 -12 -9 -8 -7 -7 -6 -3 -2 -1 -1 -1 -2 -4 -3 -2 -2 -1 -0 -1 -0 0 0 1 2 1 -2 0 0 1 0 2 3 2 -1 1 1 -1 -1 -1 0 3 3
-7 -6 -5 -6 -8 -10 -13 -18 -22 -29 -32 -31 -24 -15 -11 -9 -8 -6 -5 -5 -3 -1 -1 -2 -2 -7 -3 -3 -0 0 1 -0 -0 -0 1 1 -0 0 -0 -0 0 -2 -1 1 1 1 2 1 -1 -0 1 3 4 3
-4 -4 -4 -4 -6 -6 -4 -5 -10 -17 -23 -30 -35 -29 -14 -11 -7 -2 -2 -6 -1 -0 -1 -0 -5 -5 -3 0 -1 1 1 1 -1 -1 1 -1 -3 -1 3 2 -2 -5 -4 -1 2 -1 0 3 2 3 2 4 5 2
-20 -9 -5 -5 -4 -4 -4 -4 -4 -6 -16 -27 -30 -28 -15 -12 -7 -2 -3 -0 -2 -0 -2 -1 -1 1 -0 0 -0 0 -0 -1 -1 -0 1 -1 -1 1 1 1 -3 -5 -5 -4 -4 1 1 3 2 1 -1 2 3 2
-7 -6 -7 -8 -6 -5 -5 -4 -4 -4 -8 -24 -28 -20 -14 -11 -8 -5 -9 -4 -0 -1 -1 -1 -1 1 0 1 1 -0 -1 -1 -0 0 0 -0 -2 0 2 -4 -4 -6 -6 -6 -1 1 2 2 3 1 -2 0 2 2
-6 -6 -6 -6 -6 -7 -5 -5 -5 -4 -7 -23 -23 -15 -10 -3 -1 -0 -1 -2 -2 -1 -2 -2 -2 -0 1 0 -0 -1 -1 1 -0 1 -1 -1 -0 1 -2 -5 -6 -7 -2 -0 -1 1 -1 0 1 -3 -3 -3 -3 -1
-6 -6 -6 -6 -6 -6 -6 -5 -5 -5 -9 -19 -4 -1 0 -1 -1 -1 -2 -1 -1 -1 -0 -0 -5 -1 -0 -1 2 1 -0 2 3 1 -1 2 -0 -4 -5 -5 -6 -3 -1 -2 -2 -2 -2 -2 -2 -3 -4 -4 -4 -2
-7 -6 -6 -6 -6 -6 -6 -6 -5 -5 -9 -3 -1 -2 -1 -2 -4 -5 -2 -1 -1 0 -0 -1 -1 1 0 0 2 0 2 3 2 2 1 1 -1 0 -2 -2 -1 0 0 0 -0 -1 -1 -1 -2 -3 -3 -4 -3 -2
-7 -7 -7 -7 -6 -6 -6 -6 -5 -5 -4 -4 -4 -5 -3 -3 -3 -3 -2 -5 -6 -6 -2 -2 -1 -1 -1 -0 1 0 1 1 1 1 2 0 2 -1 -0 0 -0 -0 0 0 1 1 -0 -1 -1 -2 -2 -2 -2 -1
-7 -7 -7 -7 -8 -8 -6 -6 -6 -5 -8 -6 -3 -3 -2 -4 -1 -3 -3 -6 -3 -5 -4 -4 -3 -2 -1 -2 -0 0 1 1 -1 2 -1 2 -1 -0 -0 -0 -1 -1 0 0 1 1 0 0 -0 -2 -2 -1 -1 -1
-7 -8 -8 -8 -8 -6 -7 -7 -6 -7 -6 -6 -4 -2 -3 -2 -5 -6 -6 -5 -8 -5 -5 -6 -4 -2 -3 -1 0 0 -0 -1 1 0 -0 3 -1 -1 -0 0 -0 -1 -1 -1 -1 -0 -0 -0 -2 -2 -3 -3 -2 -2
-9 -8 -7 -7 -7 -7 -6 -6 -6 -6 -7 -7 -7 -4 -3 -7 -7 -7 -5 -6 -4 -5 -6 -5 -4 -5 -3 -1 -3 -3 -0 -0 -1 1 2 1 -1 -0 -1 -1 -1 -1 -1 -1 -1 -1 -1 -1 -1 -1 -3 -3 -4 -3
-7 -7 -7 -7 -9 -9 -10 -8 -6 -5 -5 -10 -9 -5 -7 -2 1 -0 -0 -2 -5 -5 -5 -6 -5 -4 -4 -5 -4 -3 -3 -3 -2 0 -1 0 -0 -1 -1 -1 -1 -1 -2 -2 -2 -2 -2 -1 -1 -2 -2 -2 -3 -5
-8 -7 -6 -6 -7 -8 -8 -6 -5 -4 -7 -10 -4 -8 -6 -3 1 0 -1 -3 -5 -6 -2 -5 -4 -5 -7 -5 -6 -6 -7 -2 -1 -2 -2 -1 -0 -1 -1 -1 -2 -2 -2 -3 -3 -3 -3 -3 -4 -4 -4 -4 -4 -4
-7 -8 -7 -7 -6 -7 -6 -6 -5 -8 -10 -10 -5 -5 -3 -5 -3 -3 -2 -3 -4 -6 -5 -5 -6 -5 -6 -8 -8 -5 -1 -2 -2 -3 -3 -2 -1 -1 -1 -2 -2 -2 -3 -3 -3 -3 -3 -3 -3 -4 -4 -4 -4 -5
-9 -9 -9 -10 -9 -6 -8 -5 -7 -10 -11 -11 -9 -8 -7 -5 -4 -3 -3 -4 -5 -7 -6 -5 -4 -6 -6 -5 -5 -1 -1 -2 -3 -3 -3 -2 -2 -2 -1 -2 -2 -3 -3 -3 -3 -3 -3 -3 -4 -4 -4 -4 -4 -4
-8 -11 -10 -10 -9 -6 -6 -10 -10 -8 -9 -10 -10 -8 -8 -6 -5 -4 -4 -4 -5 -6 -4 -4 -4 -4 -5 -5 -5 -3 -1 -1 -3 -3 -2 -2 -3 -2 -3 -3 -3 -3 -3 -4 -4 -4 -4 -5 -5 -5 -5 -5 -5 -5
-8 -9 -10 -8 -7 -7 -9 -11 -13 -11 -10 -9 -9 -9 -7 -6 -5 -4 -4 -4 -3 -3 -4 -6 -7 -7 -3 -1 -4 -2 -1 -2 -2 -3 -3 -3 -3 -3 -2 -3 -4 -4 -4 -4 -5 -5 -5 -5 -5 -5 -5 -5 -5 -5
-9 -10 -9 -7 -7 -6 -6 -10 -11 -12 -12 -11 -10 -9 -3 -2 -2 -4 -4 -4 -3 -4 -6 -7 -7 -7 -2 -1 -2 -1 -1 -2 -3 -2 -3 -3 -2 -2 -3 -3 -3 -4 -5 -5 -5 -5 -5 -5 -6 -6 -6 -6 -5 -5
-9 -9 -7 -7 -7 -7 -9 -12 -12 -12 -9 -9 -10 -9 -9 -5 -6 -6 -4 -5 -5 -5 -6 -6 -6 -5 -4 -3 -2 -1 -2 -2 -2 -3 -3 -3 -4 -5 -5 -5 -5 -5 -5 -5 -5 -5 -5 -5 -6 -6 -6 -6 -6 -6
-7 -7 -7 -9 -10 -9 -12 -12 -14 -11 -11 -9 -9 -9 -11 -7 -7 -3 -2 -5 -6 -5 -6 -6 -5 -5 -4 -3 -2 -2 -2 -2 -3 -3 -3 -4 -4 -4 -5 -5 -5 -5 -5 -5 -5 -5 -5 -6 -6 -6 -6 -6 -6 -6
-6 -6 -6 -7 -10 -10 -11 -12 -11 -10 -8 -7 -8 -8 -9 -11 -3 -3 -4 -6 -6 -5 -5 -4 -4 -4 -3 -2 -3 -3 -2 -2 -3 -4 -4 -4 -4 -4 -4 -4 -5 -4 -5 -5 -5 -5 -5 -6 -6 -6 -6 -6 -6 -6
-7 -7 -8 -11 -11 -12 -13 -11 -10 -9 -10 -9 -7 -8 -11 -8 -5 -3 -5 -5 -3 -3 -2 -3 -3 -3 -2 -2 -2 -2 -1 -3 -3 -3 -3 -4 -5 -5 -4 -4 -4 -4 -4 -5 -5 -5 -5 -5 -6 -6 -6 -5 -6 -6
-8 -7 -8 -8 -10 -10 -10 -9 -9 -10 -7 -8 -8 -6 -6 -6 -4 -5 -6 -8 -7 -6 -4 -3 -3 -3 -3 -3 -3 -2 -2 -3 -3 -3 -3 -4 -4 -4 -5 -4 -4 -4 -5 -5 -5 -5 -5 -5 -5 -5 -5 -6 -5 -5
-10 -12 -10 -10 -10 -11 -7 -7 -6 -6 -6 -8 -8 -6 -5 -7 -7 -8 -8 -9 -8 -7 -6 -4 -4 -3 -3 -4 -3 -4 -3 -3 -4 -4 -4 -4 -4 -5 -5 -4 -5 -5 -5 -5 -4 -4 -5 -5 -4 -5 -5 -5 -5 -4
-10 -13 -12 -10 -11 -7 -8 -8 -8 -10 -9 -9 -7 -8 -8 -9 -9 -8 -9 -9 -9 -8 -8 -8 -8 -6 -6 -6 -6 -6 -6 -5 -5 -5 -5 -6 -6 -6 -6 -6 -6 -6 -6 -7 -7 -6 -7 -7 -6 -6 -5 -4 -4 -5
-13 -14 -13 -13 -12 -8 -8 -10 -10 -9 -9 -9 -9 -10 -10 -10 -11 -10 -9 -9 -10 -10 -10 -9 -9 -9 -9 -8 -8 -8 -7 -6 -6 -5 -6 -7 -7 -8 -8 -7 -8 -8 -8 -7 -7 -7 -6 -6 -6 -6 -6 -5 -5 -5
-13 -13 -15 -15 -12 -9 -11 -10 -8 -9 -9 -8 -9 -11 -10 -10 -11 -11 -10 -9 -9 -10 -11 -11 -11 -10 -10 -10 -10 -10 -10 -10 -9 -8 -8 -8 -8 -9 -10 -11 -12 -13 -13 -13 -12 -10 -7 -7 -7 -6 -6 -6 -6 -5
-12 -13 -13 -13 -12 -12 -11 -11 -9 -9 -8 -8 -8 -9 -10 -11 -11 -12 -12 -12 -12 -12 -12 -12 -12 -12 -12 -12 -12 -13 -13 -15 -16 -16 -14 -13 -14 -14 -14 -14 -13 -11 -10 -9 -10 -12 -10 -8 -8 -7 -7 -7 -7 -7
-14 -15 -16 -15 -13 -12 -11 -10 -9 -10 -9 -10 -10 -10 -11 -11 -11 -12 -13 -13 -13 -13 -13 -13 -13 -13 -13 -13 -13 -15 -15 -15 -16 -16 -16 -16 -16 -16 -16 -16 -11 -10 -10 -9 -9 -9 -9 -9 -8 -8 -8 -7 -8 -7

GFSWCAN_850_dewp_219.txt.gz
Dewpoint
-10 -15 -19 -24 -24 -21 -16 -10 -8 -7 -6 -6 -5 -5 -5 -5 -5 -5 -6 -5 -2 -2 -3 -3 -4 -1 -2 -2 -1 -3 -2 -2 -1 0 -0 -2 -0 -2 -2 -4 -3 -2 -2 -2 -2 -0 1 -7 -6 -4 -6 -9 -8 3
-7 -10 -13 -15 -18 -24 -25 -24 -21 -15 -11 -9 -8 -7 -6 -5 -5 -4 -3 -6 -3 -1 -2 -3 -3 -4 -2 -3 -1 -2 -1 -1 0 1 1 1 -1 -2 -2 -1 -5 -1 -2 -1 -1 -2 -3 -5 -4 -6 -7 -3 -1 2
-5 -4 -5 -8 -12 -14 -15 -19 -24 -26 -26 -21 -17 -14 -11 -8 -7 -5 -2 -3 -3 -2 -3 -3 -3 -10 -5 -5 -5 -0 -1 -1 -1 -1 -0 0 0 -0 1 -0 -2 -3 -4 -1 1 -1 -3 -3 -3 -5 -6 -5 -1 -0
-4 -5 -4 -4 -4 -5 -5 -6 -8 -11 -19 -26 -28 -27 -23 -18 -12 -8 -2 -2 -2 -2 -2 -5 -5 -5 -5 -3 -2 -2 -1 -1 -0 -0 -0 1 1 -1 -1 -2 -1 -2 -1 -1 -0 -0 -1 -1 -1 -0 -3 -3 -2 1
-11 -5 -4 -4 -4 -4 -4 -4 -4 -4 -5 -9 -14 -21 -23 -20 -15 -8 -9 -9 -6 -2 -4 -5 -5 -8 -6 -8 -5 -3 -1 0 -0 -1 -0 -0 -1 -1 -1 -1 -1 -3 -3 -1 -1 -4 0 1 1 1 2 1 3 1
-26 -21 -18 -14 -6 -4 -4 -4 -4 -4 -4 -4 -5 -11 -15 -13 -7 -3 -5 -6 -0 -1 -1 -1 -4 -6 -8 -3 -3 0 -1 -0 0 -1 -0 0 -1 -1 2 -0 -4 -5 -5 -5 -2 -1 -0 -2 1 1 2 1 3 2
-8 -8 -7 -6 -6 -6 -7 -5 -5 -5 -4 -4 -4 -6 -15 -14 -5 -4 -4 -2 -2 -1 -1 -2 -3 -3 0 -0 0 -0 -1 1 -1 -1 -1 0 -1 -1 1 0 -4 -5 -6 -5 -5 -1 0 0 1 -0 1 3 2 3
-6 -6 -6 -6 -6 -6 -6 -6 -6 -5 -5 -4 -9 -9 -17 -15 -6 -6 -15 -12 -9 -3 -1 -1 -3 -3 -1 -0 -0 -0 -0 -1 -1 -0 -0 -0 -2 -2 -0 -3 -4 -4 -5 -5 -4 -2 -1 1 1 1 1 2 3 3
-6 -6 -6 -6 -6 -6 -6 -5 -5 -6 -5 -7 -10 -15 -14 -9 -4 -3 -1 -2 -1 -3 -2 -2 -2 -4 -1 0 0 -1 -1 -0 -1 -0 -0 -2 -2 -0 -1 -3 -5 -6 -5 -3 -1 -1 -1 -2 0 2 2 2 3 2
-6 -6 -6 -6 -6 -6 -6 -6 -6 -6 -5 -9 -5 -3 -0 -1 -1 -1 -1 -1 -0 -1 -1 -1 -4 -3 -3 -2 1 -0 -0 0 1 -1 -1 -0 -1 -4 -5 -5 -5 -5 -3 -1 -0 1 0 0 0 2 2 -0 -0 2
-7 -7 -6 -6 -6 -6 -6 -6 -6 -6 -7 -3 -1 -1 -1 -2 -3 -3 -2 -1 -2 -1 -2 -2 -3 -3 -2 0 1 0 1 1 2 -0 1 2 1 1 -0 -1 -1 -0 0 0 0 1 1 -0 -0 1 -2 -2 -0 2
-7 -7 -7 -7 -7 -7 -7 -6 -6 -6 -5 -5 -4 -7 -7 -5 -3 -2 -3 -2 -2 -2 -1 -2 -1 -1 -0 -0 -1 -1 1 1 1 0 2 1 0 -0 -0 -1 -1 -1 -0 -0 0 1 0 -1 -1 -3 -2 -1 0 1
-7 -7 -7 -6 -7 -8 -8 -6 -6 -7 -6 -7 -5 -4 -2 -4 -2 -1 -4 -2 -3 -4 -3 -4 -2 -3 -1 -1 -1 -1 1 1 -0 2 0 1 -1 -1 -1 -1 -1 -1 -1 -0 0 0 0 -1 -2 -2 -2 -1 -0 0
-7 -7 -7 -8 -8 -8 -7 -7 -6 -7 -6 -5 -3 -2 -2 -3 -2 -3 -4 -4 -6 -5 -4 -4 -3 -2 -2 -1 -2 0 -1 0 0 -1 1 1 -1 -1 -1 -1 -1 -2 -2 -1 -1 -0 -0 -1 -0 -1 -1 -1 -0 -0
-8 -8 -8 -9 -7 -6 -7 -7 -7 -6 -5 -6 -6 -3 -2 -4 -5 -6 -6 -6 -5 -5 -5 -4 -4 -3 -2 -1 -1 -2 -1 0 -0 0 1 -0 -1 -1 -1 -2 -2 -2 -2 -2 -2 -2 -2 -2 -1 -1 -0 -1 -1 -1
-8 -8 -10 -7 -8 -8 -8 -9 -9 -6 -6 -7 -9 -5 -4 -3 -2 -2 -1 -3 -5 -5 -5 -5 -3 -3 -2 -2 -1 -2 -3 -2 -1 -0 -0 -1 -1 -2 -2 -1 -2 -2 -1 -2 -1 -1 -1 -1 -1 -1 -2 -3 -3 -3
-9 -8 -7 -7 -7 -8 -7 -7 -7 -6 -5 -6 -6 -11 -9 -8 -6 -3 -2 -2 -4 -3 -3 -3 -3 -4 -5 -3 -4 -4 -3 -2 -1 -3 -2 -1 -1 -1 -2 -2 -2 -2 -2 -2 -3 -2 -2 -2 -2 -2 -3 -3 -3 -4
-9 -9 -8 -7 -7 -8 -10 -7 -6 -6 -7 -9 -7 -9 -9 -6 -5 -4 -5 -3 -3 -3 -3 -3 -4 -4 -4 -4 -4 -3 -2 -2 -3 -3 -3 -2 -0 -1 -2 -2 -2 -2 -2 -3 -4 -3 -3 -3 -4 -4 -4 -4 -3 -3
-10 -9 -8 -11 -11 -8 -8 -7 -7 -7 -10 -11 -10 -9 -9 -8 -9 -9 -6 -5 -4 -4 -4 -4 -3 -2 -3 -3 -3 -1 -2 -3 -3 -4 -3 -3 -3 -2 -1 -2 -2 -2 -2 -3 -3 -3 -3 -3 -4 -4 -4 -4 -4 -4
-8 -8 -8 -9 -11 -7 -8 -8 -8 -6 -6 -10 -10 -9 -9 -8 -9 -8 -7 -5 -4 -3 -2 -2 -3 -4 -4 -5 -5 -5 -3 -2 -4 -4 -4 -4 -3 -2 -2 -2 -3 -3 -3 -3 -3 -4 -4 -5 -5 -4 -4 -4 -5 -4
-9 -9 -10 -10 -9 -8 -7 -10 -11 -11 -10 -7 -7 -7 -5 -5 -7 -6 -5 -6 -4 -3 -3 -5 -5 -7 -7 -6 -4 -5 -4 -2 -5 -4 -4 -3 -3 -3 -3 -3 -3 -3 -4 -4 -5 -5 -5 -5 -5 -5 -5 -5 -4 -4
-9 -9 -8 -8 -8 -8 -7 -9 -10 -13 -13 -11 -11 -12 -9 -7 -7 -6 -3 -4 -4 -4 -4 -5 -5 -7 -7 -7 -5 -4 -5 -4 -3 -3 -4 -4 -2 -2 -3 -4 -4 -4 -4 -4 -5 -5 -5 -6 -6 -5 -5 -5 -5 -5
-9 -8 -8 -8 -8 -9 -9 -11 -9 -10 -7 -8 -11 -9 -9 -9 -10 -10 -6 -4 -4 -4 -5 -5 -5 -6 -6 -7 -6 -4 -3 -2 -1 -3 -4 -4 -4 -4 -4 -4 -5 -5 -5 -5 -5 -6 -6 -6 -6 -6 -6 -6 -6 -6
-8 -7 -8 -8 -9 -11 -11 -10 -12 -12 -12 -10 -10 -8 -8 -9 -11 -7 -6 -6 -6 -6 -6 -5 -6 -6 -6 -6 -5 -4 -4 -2 -3 -3 -3 -4 -5 -5 -5 -5 -5 -5 -5 -5 -5 -5 -6 -6 -6 -6 -6 -6 -6 -6
-7 -6 -7 -7 -9 -9 -9 -9 -10 -11 -10 -10 -10 -8 -8 -11 -7 -7 -9 -5 -6 -3 -4 -5 -5 -6 -6 -6 -5 -5 -4 -2 -4 -4 -4 -5 -5 -5 -5 -5 -5 -5 -5 -5 -5 -6 -6 -6 -6 -6 -6 -6 -6 -6
-8 -8 -8 -7 -7 -9 -10 -11 -11 -10 -9 -9 -8 -8 -9 -6 -8 -5 -6 -7 -7 -7 -7 -3 -4 -4 -3 -4 -2 -4 -3 -2 -4 -4 -4 -5 -5 -5 -6 -5 -5 -5 -5 -5 -5 -6 -6 -6 -6 -6 -6 -6 -6 -6
-7 -8 -7 -8 -9 -9 -7 -7 -9 -7 -7 -6 -6 -5 -4 -5 -7 -7 -8 -8 -8 -8 -7 -4 -2 -2 -2 -2 -1 -1 -2 -3 -4 -4 -4 -5 -5 -5 -6 -6 -6 -5 -5 -5 -5 -6 -6 -6 -6 -6 -6 -6 -6 -6
-8 -12 -11 -10 -10 -10 -9 -7 -7 -6 -8 -9 -8 -7 -7 -7 -8 -8 -8 -8 -8 -8 -8 -5 -3 -3 -3 -3 -2 -2 -2 -2 -3 -4 -4 -4 -4 -4 -4 -4 -4 -5 -5 -5 -5 -5 -5 -5 -6 -6 -6 -6 -5 -6
-9 -13 -12 -12 -11 -9 -7 -8 -8 -9 -9 -9 -8 -8 -8 -10 -11 -9 -9 -9 -9 -9 -8 -8 -7 -7 -5 -4 -4 -5 -4 -4 -4 -4 -4 -5 -5 -5 -5 -5 -6 -6 -6 -5 -5 -5 -5 -5 -5 -5 -5 -5 -5 -5
-11 -12 -11 -12 -13 -8 -8 -9 -9 -9 -9 -8 -10 -10 -11 -11 -11 -10 -10 -10 -10 -10 -10 -10 -9 -8 -8 -7 -7 -6 -6 -5 -5 -5 -5 -6 -7 -7 -7 -6 -6 -6 -7 -7 -7 -7 -6 -6 -6 -6 -6 -5 -5 -5
-11 -11 -13 -13 -11 -9 -10 -10 -8 -10 -9 -9 -11 -12 -11 -11 -13 -12 -12 -11 -12 -12 -11 -11 -11 -10 -10 -10 -10 -9 -9 -8 -7 -6 -6 -7 -8 -8 -8 -8 -9 -9 -10 -9 -9 -8 -7 -7 -7 -6 -6 -6 -6 -6
-10 -13 -11 -12 -11 -12 -11 -11 -9 -8 -9 -9 -9 -11 -12 -12 -12 -13 -12 -13 -13 -13 -13 -13 -13 -13 -12 -12 -11 -11 -11 -11 -10 -10 -9 -9 -11 -12 -13 -14 -15 -14 -11 -15 -13 -13 -10 -8 -7 -7 -7 -6 -6 -6
-11 -15 -16 -15 -13 -13 -12 -11 -8 -9 -10 -10 -10 -11 -12 -12 -12 -12 -13 -13 -13 -13 -13 -13 -13 -13 -13 -13 -13 -13 -13 -13 -14 -15 -16 -16 -16 -16 -15 -14 -11 -10 -10 -9 -10 -10 -10 -9 -9 -8 -8 -7 -7 -7

GFSWCAN_850_dewp_222.txt.gz
Dewpoint
-4 -4 -4 -8 -15 -18 -22 -24 -24 -19 -11 -8 -7 -6 -6 -5 -4 -3 -2 -2 -3 -3 -3 -4 -5 -2 -2 -2 -3 -5 -3 -4 -2 -0 -1 -4 -2 -2 -2 -5 -5 -3 -2 -3 -3 -0 -1 -7 -7 -4 -5 -7 -7 -7
-4 -4 -4 -5 -7 -10 -13 -14 -18 -23 -26 -25 -19 -13 -11 -8 -6 -3 -2 -2 -2 -2 -4 -4 -4 -4 -4 -5 -2 -3 -3 -3 -2 0 0 -1 0 -0 -0 1 -5 -2 -3 -1 -2 -3 -5 -5 -5 -5 -5 -5 -5 -5
-7 -4 -4 -4 -4 -4 -4 -5 -6 -6 -8 -17 -24 -25 -23 -18 -14 -4 -3 -3 -3 -3 -3 -3 -6 -11 -7 -7 -6 -2 -2 -2 -2 -1 -1 -0 0 -2 -1 -2 -3 -3 -4 -2 -2 -4 -4 -5 -4 -5 -3 -1 1 1
-6 -4 -4 -4 -4 -4 -4 -4 -4 -4 -4 -4 -4 -6 -10 -14 -19 -8 -5 -4 -3 -3 -2 -5 -6 -7 -9 -7 -5 -4 -4 -3 -2 -1 -0 -0 0 -1 -1 -2 -2 -4 -2 -2 -2 -3 -4 -6 -6 -3 -3 -3 -0 0
-29 -21 -16 -15 -10 -7 -4 -5 -5 -5 -4 -4 -4 -4 -4 -4 -4 -5 -4 -6 -3 -3 -4 -5 -7 -9 -8 -6 -7 -5 -3 -1 -1 -1 -1 -1 -1 -1 0 -0 -0 -3 -2 -1 -1 -5 -4 -4 -5 -4 -2 -1 -0 2
-26 -13 -7 -9 -7 -7 -8 -7 -6 -5 -5 -5 -4 -4 -4 -4 -4 -5 -5 -8 -5 -5 -3 -2 -3 -5 -6 -5 -5 -4 -3 -2 -1 -1 -0 -0 -1 -0 1 -0 -4 -5 -5 -4 -3 -5 -5 -4 -4 -3 -1 -0 1 3
-22 -7 -6 -6 -6 -6 -6 -6 -5 -6 -7 -5 -5 -4 -4 -4 -4 -5 -8 -1 -2 -2 -2 -3 -5 -6 -4 -2 -1 0 1 0 0 -0 -1 -0 -0 0 1 -0 -5 -4 -4 -4 -5 -4 -4 -5 -1 -3 -1 1 2 1
-12 -6 -6 -6 -6 -6 -6 -6 -6 -6 -6 -5 -5 -5 -4 -4 -4 -4 -7 -17 -6 -4 -4 -3 -3 -5 -4 -1 -1 -0 -0 -1 -1 -1 -0 0 -1 -1 0 -4 -4 -5 -5 -4 -4 -4 -3 -2 -1 -1 -1 2 2 3
-6 -6 -6 -6 -6 -6 -6 -6 -6 -6 -6 -6 -6 -5 -5 -5 -4 -9 -6 -1 -4 -7 -3 -2 -4 -6 -1 -1 -1 -1 -1 -0 -1 -0 -0 -0 -2 -0 -2 -3 -3 -3 -4 -5 -5 -1 -1 -0 -0 0 1 2 2 3
-7 -7 -8 -7 -7 -7 -6 -6 -6 -6 -5 -7 -5 -4 -3 -2 -2 -1 -1 -1 -2 -3 -2 -1 -3 -4 -3 -2 -3 -1 -1 -0 -0 -1 -2 -0 -1 -3 -3 -1 -1 -1 -0 0 0 0 0 0 0 -1 1 2 2 2
-6 -7 -7 -7 -7 -7 -7 -6 -6 -6 -8 -4 -3 -2 -2 -1 -2 -1 -2 -1 -2 -2 -2 -2 -3 -3 -4 -4 -4 -1 -0 -1 1 -2 -0 1 0 0 -0 -1 -1 -1 -1 -0 0 1 0 0 -0 -1 1 0 1 1
-7 -7 -7 -7 -7 -7 -7 -7 -7 -7 -7 -5 -5 -6 -9 -6 -3 -3 -3 -3 -2 -2 -3 -3 -2 -3 -3 -1 -1 -3 -1 -1 -0 0 1 1 -1 -0 -1 -1 -2 -2 -2 -1 -1 -0 -0 -0 -0 1 1 0 1 3
-8 -7 -7 -7 -8 -8 -8 -8 -7 -7 -7 -7 -6 -5 -4 -5 -4 -4 -3 -1 -3 -4 -2 -1 -2 -1 -0 -0 -2 -2 -0 -1 -1 1 -0 0 -1 -2 -2 -1 -1 -2 -2 -2 -1 -1 -0 -0 -0 0 0 1 2 3
-7 -8 -8 -8 -9 -8 -7 -7 -6 -8 -7 -6 -4 -5 -4 -4 -3 -3 -3 -4 -6 -5 -4 -3 -2 -2 -2 -1 -2 -0 -2 -2 -2 -2 -0 0 -1 -1 -1 -2 -2 -2 -3 -3 -2 -2 -1 -0 0 0 0 1 2 2
-8 -9 -8 -8 -9 -7 -6 -7 -8 -7 -6 -5 -5 -4 -4 -5 -4 -4 -5 -5 -7 -5 -4 -3 -3 -3 -3 -3 -2 -2 -2 -1 -1 -2 0 -1 -1 -2 -2 -2 -2 -2 -2 -4 -3 -3 -2 -2 -1 -1 0 0 1 1
-9 -8 -10 -7 -8 -8 -9 -7 -8 -8 -6 -7 -6 -6 -6 -4 -5 -2 -2 -2 -3 -4 -4 -4 -3 -3 -2 -2 -1 -2 -1 -2 -3 -3 -1 -1 -1 -2 -2 -2 -2 -2 -2 -2 -2 -2 -2 -2 -2 -2 -1 -1 -0 0
-7 -9 -10 -7 -7 -7 -8 -7 -6 -7 -8 -6 -6 -9 -9 -8 -7 -10 -11 -8 -6 -4 -3 -3 -3 -3 -4 -3 -2 -3 -3 -4 -4 -2 -2 -2 -2 -2 -2 -2 -2 -2 -2 -2 -2 -2 -2 -2 -2 -3 -3 -2 -1 -1
-7 -11 -9 -7 -8 -9 -11 -11 -8 -6 -7 -7 -6 -8 -10 -9 -8 -8 -9 -11 -6 -3 -3 -3 -4 -3 -4 -3 -4 -4 -2 -2 -2 -3 -3 -2 -1 -2 -2 -2 -2 -2 -2 -3 -3 -3 -3 -3 -2 -2 -2 -2 -3 -3
-8 -8 -11 -9 -7 -9 -10 -8 -9 -7 -8 -9 -10 -10 -11 -10 -10 -9 -9 -9 -8 -8 -5 -3 -3 -1 -4 -4 -5 -4 -2 -3 -4 -4 -4 -3 -3 -2 -2 -2 -2 -2 -3 -3 -3 -3 -4 -4 -4 -4 -4 -4 -3 -3
-9 -9 -9 -8 -8 -8 -9 -10 -8 -7 -6 -9 -10 -10 -10 -9 -10 -9 -8 -9 -8 -4 -3 -1 -3 -5 -5 -7 -7 -6 -6 -5 -5 -4 -4 -4 -4 -3 -2 -3 -2 -3 -3 -3 -3 -4 -4 -4 -4 -4 -4 -5 -4 -4
-9 -9 -9 -9 -8 -7 -7 -9 -10 -10 -11 -10 -10 -7 -9 -9 -10 -11 -10 -12 -6 -4 -4 -3 -5 -6 -6 -7 -6 -6 -7 -4 -4 -7 -6 -4 -4 -3 -2 -3 -4 -3 -3 -3 -4 -5 -5 -5 -5 -5 -5 -5 -4 -4
-9 -10 -8 -10 -8 -8 -9 -11 -11 -13 -15 -14 -14 -14 -12 -11 -10 -11 -11 -6 -5 -8 -6 -5 -5 -5 -6 -6 -5 -7 -7 -5 -3 -5 -6 -5 -3 -3 -3 -4 -4 -3 -3 -4 -5 -5 -6 -6 -5 -6 -6 -5 -5 -5
-9 -9 -8 -8 -8 -8 -10 -12 -7 -8 -7 -7 -10 -8 -8 -8 -11 -12 -8 -9 -9 -11 -10 -9 -8 -5 -5 -6 -6 -6 -6 -6 -4 -4 -5 -4 -4 -4 -4 -5 -5 -5 -5 -5 -5 -6 -6 -6 -6 -6 -6 -6 -5 -5
-8 -8 -8 -8 -8 -12 -10 -8 -10 -10 -10 -9 -9 -9 -10 -10 -11 -8 -8 -8 -8 -7 -7 -6 -4 -3 -4 -4 -5 -6 -5 -4 -3 -3 -4 -4 -4 -5 -5 -5 -5 -5 -5 -6 -6 -6 -6 -6 -6 -6 -6 -6 -6 -7
-9 -7 -7 -9 -9 -10 -11 -12 -11 -10 -12 -11 -12 -11 -10 -9 -8 -8 -9 -8 -9 -9 -7 -7 -6 -3 -4 -5 -6 -6 -5 -3 -2 -4 -4 -4 -5 -5 -5 -5 -6 -5 -6 -6 -6 -6 -6 -6 -6 -7 -6 -6 -6 -7
-10 -11 -8 -7 -7 -8 -11 -13 -14 -13 -9 -11 -10 -9 -8 -8 -8 -6 -8 -8 -9 -8 -8 -8 -7 -7 -3 -4 -5 -3 -2 -1 -2 -4 -4 -5 -6 -6 -6 -6 -5 -5 -6 -6 -6 -6 -6 -6 -6 -6 -6 -6 -6 -6
-13 -10 -7 -7 -8 -8 -9 -9 -8 -7 -7 -7 -7 -7 -7 -7 -8 -9 -9 -9 -9 -8 -8 -8 -6 -4 -2 -3 -3 -3 -2 -1 -2 -5 -5 -5 -6 -6 -6 -6 -6 -6 -6 -6 -6 -6 -6 -6 -6 -6 -6 -7 -7 -7
-8 -9 -10 -11 -11 -11 -12 -9 -9 -8 -10 -9 -9 -10 -10 -10 -10 -11 -10 -10 -10 -9 -8 -8 -9 -4 -3 -3 -2 -2 -2 -2 -2 -4 -5 -4 -5 -5 -6 -6 -6 -6 -6 -6 -6 -6 -6 -6 -6 -6 -6 -6 -6 -6
-9 -13 -11 -12 -13 -11 -8 -8 -10 -9 -9 -8 -14 -12 -10 -12 -12 -11 -11 -10 -10 -10 -9 -9 -9 -6 -5 -5 -4 -3 -4 -3 -3 -4 -4 -4 -4 -4 -4 -4 -5 -6 -6 -6 -6 -6 -6 -6 -6 -6 -6 -6 -6 -6
-11 -12 -10 -14 -14 -9 -9 -9 -9 -8 -8 -9 -11 -11 -12 -12 -12 -12 -13 -12 -12 -12 -11 -10 -9 -8 -8 -7 -7 -6 -5 -4 -4 -5 -5 -5 -5 -5 -5 -5 -5 -6 -6 -6 -6 -6 -6 -6 -6 -6 -5 -5 -5 -5
-11 -9 -13 -13 -10 -10 -11 -9 -9 -8 -9 -10 -12 -13 -12 -12 -14 -14 -13 -13 -13 -12 -12 -12 -11 -10 -9 -9 -9 -8 -8 -7 -6 -5 -5 -6 -6 -6 -6 -6 -6 -6 -6 -6 -7 -7 -7 -7 -6 -7 -7 -7 -7 -5
-11 -11 -16 -15 -13 -13 -11 -11 -8 -9 -10 -11 -10 -11 -12 -12 -13 -13 -13 -14 -14 -13 -13 -13 -13 -12 -12 -11 -11 -11 -10 -10 -9 -9 -9 -8 -8 -8 -7 -8 -9 -10 -11 -11 -9 -8 -8 -8 -7 -7 -8 -7 -7 -6
-12 -12 -14 -15 -15 -15 -14 -12 -9 -10 -10 -10 -11 -12 -13 -13 -14 -12 -13 -13 -13 -13 -13 -13 -13 -13 -13 -12 -12 -12 -11 -11 -11 -11 -12 -13 -16 -15 -14 -14 -13 -13 -12 -12 -13 -12 -9 -9 -8 -8 -7 -7 -6 -6

GFSWCAN_850_dewp_225.txt.gz
Dewpoint
-4 -4 -4 -4 -4 -6 -11 -16 -19 -21 -21 -18 -11 -8 -7 -5 -4 -3 -3 -3 -2 -3 -3 -4 -5 -3 -2 -3 -4 -5 -5 -6 -3 -1 -2 -3 -3 -3 -2 -5 -5 -3 -1 -2 -0 -0 -1 -7 -7 -5 -6 -8 -8 -7
-8 -4 -4 -4 -4 -4 -5 -5 -5 -8 -10 -17 -23 -24 -19 -11 -7 -3 -3 -3 -3 -2 -2 -4 -4 -5 -4 -5 -4 -4 -5 -4 -4 -1 -1 -1 -0 -0 -0 0 -4 -1 -3 -1 -1 -3 -6 -8 -7 -8 -7 -5 -5 -4
-17 -8 -4 -4 -4 -4 -4 -4 -4 -4 -4 -4 -4 -6 -12 -18 -9 -5 -4 -4 -3 -3 -4 -4 -5 -8 -7 -7 -6 -3 -4 -4 -4 -4 -2 -1 -1 -3 -2 -3 -3 -4 -6 -3 -2 -3 -5 -6 -7 -7 -6 -5 -4 -5
-25 -14 -4 -4 -5 -4 -4 -5 -5 -4 -4 -4 -4 -4 -4 -4 -4 -4 -5 -5 -5 -4 -3 -6 -7 -6 -8 -7 -7 -6 -8 -4 -3 -3 -1 -1 -1 -2 -1 -2 -2 -4 -4 -3 -3 -4 -5 -5 -6 -6 -5 -4 -5 -4
-28 -27 -19 -13 -13 -11 -8 -7 -6 -5 -5 -5 -4 -4 -4 -4 -4 -4 -4 -4 -5 -5 -4 -5 -7 -15 -11 -8 -6 -6 -5 -4 -2 -2 -1 -2 -3 -2 -1 -1 -1 -4 -3 -1 -1 -4 -4 -4 -5 -5 -5 -5 -5 -4
-29 -29 -22 -10 -8 -7 -6 -5 -6 -7 -8 -5 -5 -5 -5 -5 -5 -4 -6 -5 -5 -5 -5 -4 -5 -6 -7 -5 -4 -4 -4 -3 -2 -1 -1 -1 -2 -1 -0 -1 -5 -6 -6 -5 -3 -4 -4 -4 -4 -4 -4 -4 -5 -3
-29 -28 -17 -8 -6 -6 -6 -6 -5 -5 -6 -6 -6 -6 -6 -5 -5 -4 -8 -3 -3 -4 -4 -3 -5 -6 -5 -2 -2 -2 -1 -2 -2 -1 -1 -1 -1 -0 0 0 -4 -5 -5 -5 -4 -4 -3 -3 -3 -5 -5 -5 -2 -0
-27 -18 -11 -7 -6 -6 -6 -6 -6 -6 -6 -6 -6 -6 -6 -6 -5 -5 -6 -6 -5 -5 -4 -4 -4 -5 -7 -1 -2 -2 -1 -1 -1 -1 -1 -1 -0 -0 0 -3 -4 -4 -5 -5 -5 -5 -4 -5 -5 -3 -2 -0 0 1
-14 -8 -7 -7 -7 -6 -6 -6 -6 -6 -6 -6 -6 -6 -6 -6 -5 -7 -5 -5 -4 -5 -7 -6 -4 -6 -3 -1 -3 -2 -1 -2 -2 -1 -1 -0 -2 -1 -2 -3 -2 -1 -1 -0 -0 -1 -2 -1 -0 -0 -0 -1 -1 0
-7 -7 -7 -6 -8 -7 -7 -6 -6 -6 -6 -6 -5 -5 -5 -4 -4 -4 -2 -3 -4 -4 -5 -3 -3 -4 -4 -3 -4 -3 -2 -0 -1 -3 -1 -1 -1 -3 -3 -1 -1 -1 -1 -1 -0 -0 0 1 1 0 -0 -0 -0 2
-10 -6 -7 -7 -7 -7 -7 -6 -7 -7 -7 -5 -4 -4 -3 -3 -2 -2 -2 -1 -2 -2 -2 -2 -4 -4 -4 -5 -5 -4 -2 -1 -0 -2 -1 -1 -1 -0 -0 -1 -2 -2 -2 -2 -1 -1 -1 -0 -0 0 -0 0 2 2
-8 -8 -7 -7 -8 -7 -7 -7 -7 -6 -8 -6 -6 -7 -7 -6 -3 -2 -2 -2 -2 -3 -4 -4 -3 -3 -3 -3 -2 -2 -1 -2 -1 -1 0 -0 -2 -1 -2 -2 -2 -2 -2 -2 -2 -2 -1 -1 -1 -0 0 2 1 2
-8 -8 -8 -8 -7 -7 -8 -8 -8 -7 -6 -6 -7 -6 -6 -6 -4 -4 -4 -2 -3 -3 -3 -2 -1 -2 -1 -1 -2 -2 -1 -2 -3 -1 -1 -0 -1 -2 -2 -3 -3 -2 -3 -3 -3 -2 -2 -1 -1 -0 1 1 2 2
-8 -7 -8 -8 -8 -8 -8 -7 -6 -6 -7 -7 -6 -7 -5 -6 -4 -5 -4 -4 -5 -5 -3 -2 -2 -1 -1 -1 -2 -2 -3 -2 -2 -1 -2 -2 -2 -1 -1 -3 -2 -2 -3 -3 -3 -3 -3 -2 -1 -0 0 1 2 2
-8 -8 -9 -9 -9 -8 -7 -6 -6 -6 -7 -6 -6 -6 -5 -6 -6 -4 -5 -5 -6 -5 -4 -3 -3 -2 -1 -1 -2 -2 -2 -2 -1 -3 -4 -2 -2 -1 -2 -2 -3 -2 -4 -4 -3 -3 -3 -2 -2 -1 -1 0 0 1
-9 -9 -9 -7 -7 -9 -8 -7 -8 -9 -6 -7 -6 -5 -6 -5 -6 -4 -3 -6 -11 -4 -4 -3 -1 -1 -1 -2 -1 -2 -2 -2 -3 -4 -2 -1 -1 -2 -2 -2 -2 -2 -3 -3 -3 -3 -3 -3 -3 -2 -2 -1 -1 -1
-9 -8 -9 -6 -7 -7 -6 -7 -6 -7 -8 -6 -6 -7 -7 -7 -8 -10 -11 -8 -8 -6 -3 -3 -1 -3 -4 -2 -1 -3 -3 -4 -6 -5 -3 -2 -3 -2 -2 -2 -2 -2 -3 -3 -2 -2 -2 -2 -2 -2 -2 -2 -2 -2
-8 -10 -8 -9 -7 -9 -10 -10 -9 -7 -7 -7 -6 -10 -10 -8 -8 -9 -11 -13 -10 -6 -4 -3 -4 -3 -4 -4 -3 -4 -5 -5 -4 -3 -3 -3 -2 -2 -2 -3 -3 -3 -2 -3 -3 -4 -3 -3 -2 -3 -3 -3 -3 -3
-10 -10 -9 -10 -8 -7 -11 -10 -11 -8 -9 -8 -8 -9 -10 -11 -11 -11 -9 -10 -11 -9 -6 -4 -3 -3 -4 -4 -5 -8 -7 -5 -6 -5 -4 -4 -4 -2 -2 -3 -2 -3 -3 -3 -3 -4 -4 -4 -4 -4 -3 -3 -3 -3
-9 -9 -9 -8 -8 -7 -8 -11 -9 -8 -7 -9 -9 -10 -9 -10 -11 -10 -9 -11 -12 -8 -4 -3 -5 -6 -5 -6 -7 -6 -6 -6 -5 -4 -5 -5 -4 -3 -3 -4 -3 -3 -3 -3 -3 -4 -4 -5 -4 -4 -4 -4 -4 -3
-9 -10 -9 -9 -7 -7 -7 -9 -9 -10 -10 -12 -11 -9 -11 -10 -12 -14 -13 -14 -10 -8 -8 -9 -9 -9 -10 -5 -4 -6 -6 -6 -6 -5 -6 -6 -5 -4 -4 -3 -3 -3 -3 -3 -4 -4 -5 -5 -5 -5 -5 -5 -5 -5
-9 -9 -9 -9 -8 -8 -9 -10 -9 -12 -14 -15 -15 -15 -14 -12 -13 -13 -13 -11 -8 -10 -10 -10 -11 -9 -6 -7 -8 -7 -7 -6 -5 -6 -6 -5 -5 -4 -3 -4 -5 -4 -3 -4 -4 -5 -5 -6 -5 -5 -5 -5 -5 -5
-8 -8 -8 -9 -8 -8 -9 -10 -9 -11 -10 -9 -10 -8 -8 -8 -11 -12 -9 -10 -12 -10 -8 -7 -7 -9 -8 -9 -8 -8 -6 -5 -4 -5 -4 -5 -6 -5 -4 -4 -5 -4 -3 -4 -5 -5 -6 -6 -6 -6 -5 -5 -5 -5
-8 -9 -8 -8 -8 -13 -10 -8 -9 -11 -9 -10 -10 -11 -10 -10 -12 -9 -9 -8 -10 -10 -10 -9 -9 -8 -8 -7 -7 -5 -5 -4 -4 -4 -4 -5 -4 -4 -4 -5 -5 -5 -4 -5 -5 -6 -6 -7 -6 -6 -6 -5 -5 -6
-9 -8 -8 -10 -8 -11 -12 -13 -11 -11 -13 -12 -13 -12 -11 -9 -10 -9 -10 -9 -10 -10 -9 -9 -8 -8 -8 -7 -6 -4 -3 -3 -4 -4 -4 -5 -4 -5 -5 -5 -5 -6 -6 -6 -6 -6 -7 -7 -7 -6 -6 -7 -7 -7
-11 -12 -9 -8 -10 -9 -10 -13 -15 -14 -12 -13 -11 -9 -7 -9 -10 -8 -9 -9 -10 -10 -10 -9 -9 -9 -9 -8 -7 -4 -4 -4 -4 -3 -3 -4 -5 -5 -5 -6 -6 -6 -6 -6 -6 -6 -7 -7 -7 -7 -7 -6 -6 -7
-13 -15 -9 -8 -7 -8 -8 -9 -9 -9 -9 -8 -8 -9 -10 -8 -9 -9 -10 -10 -11 -11 -10 -10 -10 -10 -9 -8 -5 -3 -3 -4 -3 -3 -3 -4 -4 -5 -6 -6 -6 -6 -6 -6 -6 -6 -6 -7 -7 -7 -7 -7 -7 -7
-10 -9 -11 -11 -10 -10 -9 -11 -11 -11 -11 -9 -10 -12 -13 -13 -14 -12 -12 -11 -11 -11 -10 -10 -10 -10 -9 -8 -4 -3 -2 -2 -2 -2 -3 -5 -6 -6 -6 -6 -6 -6 -7 -6 -6 -6 -6 -6 -7 -7 -7 -7 -7 -7
-9 -12 -11 -14 -12 -10 -9 -10 -12 -9 -8 -9 -16 -14 -12 -12 -13 -13 -12 -12 -11 -11 -11 -11 -10 -8 -9 -8 -6 -3 -3 -4 -2 -4 -4 -5 -5 -6 -6 -6 -6 -7 -6 -6 -6 -6 -6 -6 -7 -6 -7 -6 -7 -7
-11 -12 -10 -14 -15 -11 -9 -9 -9 -8 -8 -10 -12 -13 -13 -13 -13 -13 -14 -14 -13 -12 -12 -12 -11 -10 -10 -8 -7 -6 -5 -5 -4 -4 -5 -4 -5 -5 -5 -5 -5 -6 -6 -6 -6 -7 -7 -7 -7 -6 -6 -6 -6 -6
-12 -10 -11 -12 -10 -9 -9 -9 -9 -9 -10 -11 -13 -14 -13 -13 -14 -14 -13 -14 -14 -13 -13 -13 -12 -12 -11 -10 -9 -9 -8 -7 -6 -5 -5 -4 -5 -5 -5 -5 -5 -6 -6 -6 -6 -6 -6 -6 -6 -6 -6 -6 -5 -6
-12 -11 -17 -15 -13 -11 -11 -11 -9 -10 -11 -11 -11 -11 -11 -13 -13 -13 -14 -14 -14 -14 -14 -14 -13 -13 -12 -12 -11 -11 -10 -10 -9 -8 -7 -7 -7 -7 -6 -6 -6 -6 -6 -6 -7 -7 -7 -7 -7 -7 -7 -7 -8 -7
-12 -13 -14 -15 -15 -15 -15 -13 -10 -11 -11 -11 -11 -12 -13 -13 -14 -13 -14 -15 -15 -13 -14 -14 -14 -13 -13 -13 -12 -12 -11 -11 -11 -10 -10 -9 -9 -9 -8 -9 -9 -11 -13 -14 -12 -9 -8 -8 -8 -9 -9 -8 -7 -7

GFSWCAN_850_dewp_228.txt.gz
Dewpoint
-4 -3 -3 -3 -3 -4 -4 -6 -12 -17 -19 -20 -17 -9 -6 -4 -3 -3 -3 -3 -3 -3 -4 -4 -4 -4 -4 -4 -4 -6 -5 -8 -6 -4 -5 -6 -4 -3 -2 -4 -5 -3 -1 -3 -1 -0 -1 -8 -7 -6 -7 -9 -9 -8
-4 -4 -3 -3 -4 -4 -4 -4 -4 -5 -7 -11 -13 -17 -15 -7 -4 -4 -4 -4 -3 -3 -3 -4 -4 -5 -4 -5 -4 -4 -5 -6 -5 -2 -3 -5 -3 -2 -4 -3 -3 -1 -3 -1 -1 -3 -6 -8 -7 -8 -8 -8 -8 -8
-12 -7 -4 -4 -4 -4 -4 -4 -4 -4 -4 -4 -4 -4 -4 -4 -4 -4 -5 -5 -4 -3 -4 -5 -4 -7 -7 -6 -5 -4 -5 -5 -5 -6 -6 -6 -3 -4 -3 -4 -5 -5 -7 -3 -2 -3 -4 -5 -5 -6 -6 -6 -6 -7
-21 -10 -8 -4 -4 -4 -4 -4 -5 -5 -5 -4 -4 -4 -5 -5 -5 -5 -5 -5 -5 -5 -4 -7 -10 -9 -9 -7 -6 -5 -6 -5 -5 -5 -3 -3 -3 -4 -3 -4 -3 -4 -4 -3 -2 -2 -3 -4 -5 -5 -5 -5 -5 -5
-24 -20 -17 -12 -12 -11 -8 -7 -5 -5 -5 -5 -6 -5 -5 -5 -5 -4 -4 -5 -5 -5 -7 -6 -8 -11 -11 -10 -8 -7 -5 -3 -3 -3 -2 -2 -3 -3 -3 -3 -3 -5 -4 -2 -2 -4 -4 -4 -5 -5 -4 -4 -4 -4
-26 -26 -25 -23 -18 -13 -7 -6 -6 -6 -7 -7 -6 -5 -5 -6 -6 -5 -4 -6 -5 -5 -5 -6 -9 -10 -8 -5 -6 -7 -7 -3 -3 -3 -3 -3 -4 -3 -1 -2 -6 -7 -6 -5 -4 -5 -5 -4 -4 -4 -4 -4 -4 -4
-25 -26 -25 -20 -10 -6 -6 -6 -6 -6 -6 -6 -6 -6 -6 -6 -5 -4 -5 -4 -3 -4 -5 -4 -5 -6 -6 -2 -3 -4 -4 -3 -3 -3 -2 -3 -3 -1 -0 -1 -5 -6 -5 -5 -5 -4 -4 -4 -4 -4 -4 -4 -4 -4
-23 -24 -22 -12 -8 -6 -6 -6 -6 -6 -6 -6 -7 -7 -7 -7 -7 -6 -6 -4 -4 -5 -5 -5 -5 -7 -7 -4 -2 -2 -2 -2 -2 -2 -1 -1 -1 -1 -0 -4 -4 -4 -3 -3 -2 -1 -1 -0 -0 -1 -1 -1 -0 0
-17 -19 -13 -7 -6 -7 -6 -6 -7 -7 -6 -7 -7 -6 -6 -6 -6 -7 -8 -8 -6 -5 -7 -6 -6 -8 -4 -2 -4 -3 -1 -1 -2 -1 -1 -0 -2 -0 -2 -3 -2 -1 -1 -1 -2 -1 -2 -2 -1 -0 0 0 1 0
-10 -9 -7 -6 -7 -7 -7 -7 -7 -7 -7 -7 -6 -6 -7 -7 -7 -6 -4 -4 -4 -4 -4 -5 -6 -6 -5 -3 -4 -3 -3 -2 -3 -3 -2 -0 -2 -4 -4 -3 -1 -1 -2 -2 -2 -2 -2 -2 -1 -1 -1 -1 -0 0
-7 -8 -8 -7 -7 -7 -7 -7 -7 -8 -7 -6 -6 -6 -4 -4 -4 -3 -2 -4 -4 -3 -4 -5 -8 -7 -6 -4 -3 -4 -5 -1 -1 -3 -1 -1 -2 -2 -1 -1 -2 -2 -2 -3 -3 -3 -3 -2 -2 -2 -2 -1 -0 1
-8 -7 -7 -7 -8 -7 -7 -7 -8 -7 -7 -7 -6 -7 -7 -6 -4 -2 -2 -3 -2 -2 -4 -3 -3 -5 -5 -5 -4 -2 -1 -2 -2 -3 -2 -2 -3 -2 -1 -2 -2 -2 -3 -3 -3 -3 -3 -2 -2 -2 -1 -1 -0 -0
-7 -8 -8 -8 -7 -7 -7 -8 -8 -8 -6 -6 -8 -7 -7 -7 -4 -3 -5 -2 -2 -4 -4 -3 -2 -3 -3 -2 -1 -2 -1 -2 -4 -1 -2 -3 -3 -2 -2 -2 -2 -2 -3 -3 -3 -3 -3 -2 -2 -2 -2 -1 -1 -0
-8 -9 -8 -7 -9 -8 -8 -8 -7 -6 -5 -7 -6 -9 -6 -7 -5 -6 -4 -4 -5 -5 -4 -3 -2 -1 -1 -1 -1 -1 -3 -2 -2 -1 -3 -4 -4 -3 -2 -2 -2 -2 -3 -3 -3 -3 -3 -3 -2 -2 -2 -1 -1 -0
-8 -7 -7 -8 -9 -8 -8 -8 -6 -5 -7 -7 -6 -7 -6 -8 -7 -6 -5 -5 -5 -5 -3 -3 -2 -2 -2 -2 -2 -2 -1 -2 -2 -3 -5 -5 -3 -2 -2 -3 -2 -3 -3 -3 -3 -3 -3 -3 -3 -3 -2 -2 -1 -0
-7 -9 -10 -9 -8 -9 -8 -7 -6 -6 -6 -6 -6 -6 -6 -6 -8 -6 -4 -9 -8 -9 -6 -3 -2 -1 -1 -1 -1 -2 -2 -3 -4 -4 -5 -5 -3 -2 -2 -3 -2 -3 -3 -3 -3 -2 -3 -3 -3 -3 -3 -2 -2 -1
-8 -9 -9 -6 -6 -7 -6 -6 -7 -7 -8 -7 -6 -7 -7 -7 -8 -10 -12 -11 -9 -12 -4 -4 -2 -2 -4 -2 -1 -2 -2 -4 -6 -9 -8 -5 -3 -3 -3 -3 -3 -3 -3 -3 -3 -3 -3 -2 -2 -2 -3 -3 -3 -3
-7 -10 -8 -8 -7 -7 -7 -7 -8 -7 -7 -7 -7 -11 -12 -10 -9 -10 -10 -12 -11 -7 -5 -4 -4 -3 -3 -3 -3 -3 -5 -7 -7 -6 -6 -5 -4 -3 -3 -3 -3 -3 -3 -3 -3 -4 -4 -3 -2 -3 -3 -3 -2 -3
-10 -9 -9 -8 -8 -8 -9 -9 -10 -9 -10 -9 -8 -9 -11 -11 -11 -12 -11 -10 -9 -9 -7 -6 -5 -4 -5 -5 -5 -7 -6 -5 -5 -5 -5 -5 -4 -4 -2 -2 -4 -3 -3 -3 -3 -4 -4 -4 -4 -4 -3 -3 -3 -3
-8 -8 -11 -10 -8 -8 -8 -9 -10 -9 -8 -9 -9 -9 -9 -10 -10 -10 -10 -9 -12 -14 -5 -4 -6 -8 -8 -9 -8 -6 -8 -7 -5 -4 -6 -5 -5 -5 -3 -2 -4 -4 -3 -3 -3 -3 -4 -5 -5 -4 -4 -4 -3 -3
-8 -10 -10 -9 -7 -7 -8 -9 -9 -9 -10 -10 -11 -10 -12 -11 -14 -15 -15 -16 -13 -11 -10 -12 -13 -14 -16 -14 -12 -11 -10 -7 -7 -6 -5 -4 -5 -6 -6 -2 -2 -4 -4 -4 -3 -4 -5 -5 -5 -5 -5 -5 -4 -4
-9 -8 -8 -8 -8 -8 -9 -10 -9 -11 -13 -14 -14 -15 -14 -13 -15 -15 -16 -13 -11 -13 -13 -11 -9 -8 -8 -9 -10 -9 -8 -11 -12 -10 -6 -5 -4 -5 -5 -4 -2 -3 -5 -4 -4 -5 -5 -6 -6 -6 -5 -5 -5 -5
-9 -8 -9 -9 -9 -9 -10 -10 -9 -11 -10 -10 -11 -10 -9 -9 -12 -13 -10 -10 -11 -10 -10 -10 -10 -9 -9 -9 -9 -9 -10 -10 -8 -8 -8 -5 -4 -4 -5 -5 -4 -5 -6 -4 -5 -5 -5 -6 -6 -6 -5 -5 -5 -5
-8 -8 -8 -9 -9 -13 -10 -8 -8 -9 -10 -9 -10 -11 -11 -11 -13 -10 -10 -9 -11 -12 -12 -12 -11 -10 -10 -9 -9 -10 -10 -9 -5 -4 -5 -4 -3 -4 -5 -5 -4 -6 -5 -4 -5 -5 -5 -7 -6 -6 -5 -5 -5 -6
-9 -9 -8 -11 -9 -11 -12 -13 -11 -10 -12 -11 -11 -13 -12 -13 -10 -9 -10 -10 -11 -12 -12 -12 -11 -11 -10 -9 -9 -10 -10 -9 -8 -4 -3 -4 -3 -4 -4 -4 -5 -5 -6 -6 -5 -5 -7 -7 -7 -7 -6 -5 -7 -7
-11 -12 -10 -9 -12 -11 -11 -14 -15 -13 -13 -14 -12 -11 -8 -9 -9 -9 -10 -10 -11 -12 -11 -11 -11 -11 -11 -10 -10 -10 -10 -9 -6 -4 -3 -3 -4 -5 -5 -4 -5 -5 -6 -6 -7 -7 -7 -7 -7 -7 -7 -7 -7 -8
-13 -15 -12 -10 -8 -8 -10 -10 -10 -9 -12 -12 -11 -11 -11 -12 -12 -11 -12 -12 -12 -12 -12 -11 -12 -12 -12 -11 -11 -11 -10 -7 -5 -4 -3 -3 -3 -5 -5 -6 -6 -6 -6 -6 -7 -7 -7 -7 -7 -7 -7 -6 -6 -7
-11 -11 -13 -11 -10 -9 -8 -9 -12 -13 -12 -9 -10 -13 -14 -14 -16 -13 -13 -13 -13 -13 -12 -11 -11 -12 -12 -11 -11 -10 -7 -4 -4 -3 -3 -2 -3 -3 -5 -6 -6 -6 -6 -6 -6 -6 -7 -7 -7 -7 -7 -7 -7 -8
-9 -10 -11 -15 -12 -11 -12 -10 -11 -10 -9 -10 -14 -13 -13 -13 -13 -13 -14 -14 -14 -13 -13 -13 -12 -11 -11 -10 -10 -9 -6 -5 -3 -3 -4 -3 -4 -5 -6 -6 -6 -7 -7 -7 -7 -7 -7 -7 -7 -7 -7 -7 -7 -7
-11 -11 -11 -15 -16 -15 -11 -9 -9 -9 -9 -10 -12 -13 -14 -13 -13 -14 -14 -15 -14 -14 -13 -13 -12 -12 -12 -12 -11 -10 -7 -5 -4 -4 -4 -4 -5 -6 -6 -6 -6 -6 -6 -7 -7 -6 -7 -6 -6 -6 -6 -6 -6 -7
-14 -11 -11 -11 -12 -10 -10 -9 -9 -10 -11 -12 -13 -14 -14 -14 -13 -15 -15 -15 -14 -14 -14 -14 -13 -13 -13 -12 -12 -11 -10 -9 -7 -5 -4 -5 -5 -6 -6 -5 -6 -6 -6 -6 -6 -6 -7 -7 -7 -7 -7 -7 -7 -6
-13 -12 -15 -17 -15 -11 -10 -12 -10 -11 -11 -11 -12 -12 -12 -13 -14 -14 -15 -16 -15 -14 -14 -14 -14 -14 -13 -13 -12 -12 -11 -10 -9 -8 -7 -6 -5 -5 -5 -5 -6 -6 -6 -7 -6 -7 -7 -7 -7 -7 -7 -7 -7 -7
-13 -13 -14 -16 -16 -16 -15 -13 -10 -12 -12 -12 -12 -12 -13 -14 -15 -14 -16 -16 -15 -13 -13 -14 -14 -14 -14 -13 -13 -12 -12 -11 -11 -10 -9 -8 -8 -8 -7 -7 -6 -6 -6 -6 -8 -8 -8 -8 -7 -7 -7 -7 -7 -7